Voltar ao catálogo

STARLINK-30864

AtivoComunicaçõesVLEO
NORAD 58243·PAYLOAD·🇺🇸 United States

Lançado Nov 8, 2023 de Cape Canaveral Space Force Station

Loading…

Próximas Passagens (próximas 24 horas)

TLE

AtualizadoSource: CelesTrak SupGP

Época: Sep 15, 2026, 03:20 UTC

1 58243C 23171P   26258.13937500  .00009895  00000+0  35838-3 0  2585
2 58243  43.0011 295.3805 0001373 262.1108 245.0061 15.27575462    12

Acompanhe STARLINK-30864 em tempo real com AllMySat

Download on the App Store